Location: Newark
(39.0622°N, 106.5590°E)
Time: 00:33:13
(UTC+00:00)

Vanguard 2 Rocket - Pass Details

Date: 27 January 2020
Orbit: 553 x 3327 km, 32.9° (Epoch: 24 February)

Event Time Altitude Azimuth Distance (km) Brightness Sun altitude
Rises 20:09:44 0° 220° (SW) 2,772 - -45.5°
Reaches altitude 10° 20:12:36 10° 198° (SSW) 1,817 - -44.9°
Maximum altitude 20:15:12 17° 156° (SSE) 1,458 - -44.4°
Drops below altitude 10° 20:17:58 10° 114° (ESE) 1,962 - -43.9°
Exits shadow 20:19:26 - 103° (ESE) 2,444 9.7 -43.6°
Sets 20:21:14 0° 94° (E) 3,110 10.4 -43.3°
